STARLINK-36334, 67471

Orbit data source: Space-Track

STARLINK-36334, 67471 is a payload satellite owned by SpaceX/Seattle (US) in LEO that was launched on Wed, 14 Jan 2026 UTC via an FALCON 9 launch vehicle from the Air Force Eastern Test Range (AFETR). Payload-class satellites include a variety of spacecraft equipped with specific instruments for various scientific and technological missions. These include communications satellites like Starlink; space stations such as the ISS; scientific satellites like the Hubble; Earth observation satellites from companies like Planet Labs, Umbra, and HawkEye 360; GPS; miniature CubeSats for education and research; and military/defense satellites.

Loading next visibility...
Identifier
67471, 2026-008AC
Orbit
LEO
Country
Flag of USUS
Related business
Manufacturer
SpaceX/Seattle
Mission
Operational spacecraft
Bus & Motor
STARLINK V2MO, Unknown motor
Mass
575 kg wet, ~530 kg dry
Launch date (UTC)
2026-01-14 (2 months ago)
Launch vehicle
FALCON 9
Launch site
Air Force Eastern Test Range (AFETR)
Object type
Payload
Rocket body
Debris
Shape & HBR
Unknown shape, 17.7 m
Radar Cross Section
RCS unknown

Expand to show TLE details & history
Last TLE update: 8 hours ago

TLE from 8 hours ago
0 STARLINK-36334
1 67471U 26008AC  26062.90953855  .00045652  00000-0  16553-2 0  9995
2 67471  43.0051 238.2527 0004160 293.7788  66.2628 15.27631846  8689
Epoch: 2026-03-03T21:49Z
TLE epoch observation values (Epoch: 2026-03-03T21:49:44.130Z)
Latitude
0.00002°
Longitude
109.13701°
Altitude
481.522 km
Speed
7.627 km/s
True Right ascension
15h 53m 00s
True Declination
0° 00' 00"
Sunlit
Object was in daylight at epoch
Visualization orbit readout
Latitude
Unknown
Longitude
Unknown
Altitude
Unknown
Speed
Unknown
Apparent Right ascension
Unknown
Apparent Declination
Unknown
Sunlit
N/A
Visualization observer readout
Local Sidereal Time
10:02:42
Azimuth
Unknown
Elevation
Unknown
Doppler factor
Unknown
Orbital elements
Apogee altitude
487.693 km
Perigee altitude
481.983 km
Semi-major axis
6,862.975 km
Eccentricity
0.00042
Inclination
43.0051°
RAAN
238.2527°
Arg. of periapsis
293.7788°
True anomaly
66.30645°
Mean anomaly
66.2628°
Eccentric anomaly
66.28462°
Mean motion
3.81746 °/min
Orbital period
94.3 mins
BSTAR
0.0016553
Loading maneuver chart data...
Computing Atmospheric mass density...
Loading historical data...
Loading historical data...
Loading historical data...
Loading historical data...
Loading historical data...
Loading historical data...
Loading historical data...

Documentation

Showing up to 5 results
|